Regional Weather Roundup
Issued by NWS

Home | Current Version | Previous Version | Graphics & Text | Print | Product List | Glossary On
Versions: 1 2 3 4 5 6 7 8 9 10 11 12 13 14 15 16 17 18 19 20 21 22 23 24 25 26 27 28 29 30 31 32 33 34 35 36 37 38 39 40 41 42 43 44 45 46 47 48 49 50
375
ASUS45 KBOU 291707
RWRCO

WEATHER ROUNDUP FOR COLORADO
NATIONAL WEATHER SERVICE DENVER/BOULDER CO
1100 AM MDT FRI APR 29 2016

NOTE: "FAIR" INDICATES FEW OR NO CLOUDS BELOW 12000 FEET WITH NO
SIGNIFICANT WEATHER AND/OR OBSTRUCTIONS TO VISIBILITY.

COZ001>005-013-030-031-291800-
...NORTHWEST COLORADO...

CITY           SKY/WX    TMP DP  RH WIND       PRES   REMARKS
CRAIG          CLOUDY    43  36  76 SW3       29.86S
HAYDEN         CLOUDY    39  30  70 W3        29.85F
MEEKER         CLOUDY    44  35  70 W5        29.84F
MOUNT WERNER   NOT AVBL
STEAMBOAT SPGS PTSUNNY   41  34  75 W7        29.84F
WALDEN         PTSUNNY   34  30  86 E5        29.88F WCI  30
$$

COZ006>008-011-291800-
...WEST CENTRAL VALLEYS...

CITY           SKY/WX    TMP DP  RH WIND       PRES   REMARKS
GRAND JUNCTION PTSUNNY   49  39  68 NW9       29.84F
MONTROSE       PTSUNNY   47  33  58 VRB3      29.86S
EAGLE          CLOUDY    43  36  75 SE7       29.86S
RIFLE          PTSUNNY   49  37  63 W8        29.82F
DELTA          NOT AVBL
NUCLA          NOT AVBL
$$

COZ017>023-064>068-291800-
...SOUTHWEST COLORADO...

CITY           SKY/WX    TMP DP  RH WIND       PRES   REMARKS
DURANGO        FAIR      44  33  65 VRB5      29.85F
CORTEZ         PTSUNNY   48  35  60 SW10      29.87F
PAGOSA SPRINGS LGT SNOW  35  35  99 SW7       29.87R WCI  29
TELLURIDE      CLOUDY    35  24  62 NW6       29.89S WCI  30
WOLF CREEK PAS SNOW      19  19 100 S8        29.92  VSB 1/2 WCI   9
$$

COZ009-010-012-014-032>034-037-058>063-291800-
...CENTRAL COLORADO...

CITY           SKY/WX    TMP DP  RH WIND       PRES   REMARKS
ASPEN          LGT SNOW  35  31  85 SE7       29.85R FOG     WCI  29
BUENA VISTA    LGT SNOW  30  28  92 SE10      29.91S VSB 3/4 WCI  21
COPPER MTN     NOT AVBL
BERTHOUD PASS  SNOW      16   7  67 E31G37    29.90S VSB<1/4 WCI  -5
COTTONWOOD PAS SNOW      30  28  93 CALM      29.90F VSB 1/2
GUNNISON       CLOUDY    34  30  86 CALM      29.89R VSB 3/4
KREMMLING      CLOUDY    36  32  87 NW3       29.88S
LEADVILLE      LGT SNOW  25  23  92 S9        29.87S VSB 1   WCI  15
MONARCH PASS   CLOUDY    19  16  86 NE20      29.97R WCI   4
SALIDA         CLOUDY    32  31  96 SE5       29.98S VSB 3/4 WCI  27
SUNLIGHT       LGT SNOW  30  27  86 CALM      29.93R
WILKERSON PASS LGT SNOW N/A N/A N/A E6        29.92F VSB 3/4
$$

COZ069>075-291800-
...SAN LUIS VALLEY/SANGRE DE CRISTO MOUNTAINS...

CITY           SKY/WX    TMP DP  RH WIND       PRES   REMARKS
ALAMOSA        LGT SNOW  32  31  96 SE12      29.85R VSB 3/4 WCI  23
LA VETA PASS   SNOW      27  25  93 MISG      29.89S VSB 1/2
SAGUACHE       LGT SNOW  32  32 100 S6        29.86S VSB 3/4 WCI  26
$$

COZ035-036-038>040-291800-
...NORTHERN COLORADO FRONT RANGE...

CITY           SKY/WX    TMP DP  RH WIND       PRES   REMARKS
DENVER INTL AP SNOW      33  30  88 NE5       29.94F VSB 1/4 WCI  29
DMNS CITY PARK   N/A     34  33  99 MISG      29.93S
AURORA         LGT SNOW  32  32 100 NE3       29.94S VSB 3/4
FRONT RANGE AP SNOW      32  32 100 NE5       29.94F VSB 1/2 WCI  27
ERIE MUNI ARPT LGT SNOW  34  34  99 CALM      29.94F
BOULDER MUN AP LGT SNOW  34  34 100 CALM      29.94F
CENTENNIAL     SNOW      33  32  96 CALM      29.92F VSB 1/2
BROOMFIELD     LGT SNOW  34  34 100 CALM      29.94F VSB 1
FORT COLLINS   CLOUDY    37  34  87 E7        29.97F
LONGMONT       LGT SNOW  38  36  90 NE3       29.96F
$$

COZ041-046-047-076>085-087-088-291800-
...PIKES PEAK/PALMER DIVIDE AND SOUTHERN FOOTHILLS...

CITY           SKY/WX    TMP DP  RH WIND       PRES   REMARKS
COLO. SPRINGS  SNOW      34  31  88 NW6       29.92F VSB 1/4 WCI  29
A. F. ACADEMY  LGT SNOW  32  32 100 NW5       29.90S VSB 1   WCI  27
SCHRIEVER AFB  NOT AVBL
ELLICOTT       NOT AVBL
FALCON         LGT SNOW  34  32  90 N7        29.92R VSB 3/4 WCI  28
FORT CARSON    LGT SNOW  32  32 100 N5        29.90F VSB 3/4 WCI  27
LIMON          LGT SNOW  32  31  96 N9        29.93S VSB 3/4 WCI  24
MONUMENT HILL  SNOW      32  30  93 N3        29.93S VSB 1/2
TRINIDAD       HVY SNOW  34  31  88 N10       29.90F VSB 1/4 WCI  26
$$

COZ042>045-048>051-090-091-291800-
...NORTHEAST COLORADO...

CITY           SKY/WX    TMP DP  RH WIND       PRES   REMARKS
GREELEY ARPT   CLOUDY    34  32  93 NE5       29.98F WCI  30
AKRON          LGT SNOW  34  32  92 NE12      29.95F FOG     WCI  25
BURLINGTON     LGT RAIN  40  36  86 E22G28    29.92F
WRAY           NOT AVBL
STERLING       LGT RAIN  37  37 100 E8        29.98F
HOLYOKE        NOT AVBL
FORT MORGAN    LGT RAIN  37  35  94 NE9       29.98S
$$

COZ086-089-092>099-291800-
...SOUTHEAST COLORADO...

CITY           SKY/WX    TMP DP  RH WIND       PRES   REMARKS
PUEBLO         LGT SNOW  34  31  88 W7        29.92S VSB 1   WCI  28
LA JUNTA       LGT SNOW  37  35  92 N17       29.90S FOG
LAMAR          LGT RAIN  42  40  92 E13G23    29.87S FOG
SPRINGFIELD      N/A     39  39 100 NE10      29.85S
$$




USA.gov is the U.S. government's official web portal to all federal, state and local government web resources and services.